sat.trackr.live / text

‹ back to catalog

STARLINK-4412

NORAD 53477 · 2022-099N

PAYLOAD ACTIVE UNKNOWN

§ Identity

Operator
Country
US
Launch date
2022-08-12
Launch site
AFWTR
Launch vehicle
Mass (kg)
RCS (m²)

Purposes: comms

External: N2YO · Heavens-Above · Gunter

§ Orbital elements

Epoch: 2026-05-25T06:00:02.000160Z

Period
93.33 min
Inclination
97.6022°
Eccentricity
0.0001041
Mean motion
15.42953942 rev/d
Perigee alt
436.7 km
Apogee alt
438.1 km
Semi-major
6,815.5 km
B*
3.7597e-3
RAAN
267.2963°
Arg perigee
71.6812°
Mean anomaly
6.8969°
Rev number
589

§ Raw data

STARLINK-44121 53477U 22099N   26145.25002315  .00168788  00000+0  37597-2 0  99942 53477  97.6022 267.2963 0001041  71.6812   6.8969 15.42953942  5894

JSON: /api/v1/satellites/53477 · /tle

For live sub-satellite position, see the globe view (requires WebGL).

§ Visibility from observer

Set your observer location to see the next 7 days of passes ≥ 10°. The values pass through the URL so the page stays shareable.

No JS? Fill the form by hand. The geolocation button needs JavaScript.